Location: Austin
(30.3000°N, 97.7500°W)
Time: 00:10:54
(UTC-06:00)

Mugunghwa Rocket - Pass Details

Date: 04 November 2025
Orbit: 936 x 1371 km, 26.7° (Epoch: 15 November)

Event Time Altitude Azimuth Distance (km) Brightness Sun altitude
Rises 17:57:30 0° 266° (W) 3,605 9.1 -4.3°
Reaches altitude 10° 18:00:05 10° 263° (W) 2,687 8.1 -4.8°
Maximum altitude 18:06:29 64° 183° (S) 1,108 4.4 -6.1°
Drops below altitude 10° 18:13:30 10° 103° (ESE) 2,936 6.0 -7.6°
Enters shadow 18:14:46 - 102° (ESE) 3,382 6.3 -7.9°
